Regional Weather Roundup
Issued by NWS Cleveland, OH

Home | Current Version | Previous Version | Text Only | Print | Product List | Glossary On
Versions: 1 2 3 4 5 6 7 8 9 10 11 12 13 14 15 16 17 18 19 20 21 22 23 24 25 26 27 28 29 30 31 32 33 34 35 36 37 38 39 40 41 42 43 44 45 46 47 48 49 50
000
ASUS41 KCLE 211910
RWRCLE
OHIO REGIONAL WEATHER ROUNDUP
NATIONAL WEATHER SERVICE WILMINGTON, OH
300 PM EDT SUN SEP 21 2014

NOTE: "FAIR" INDICATES FEW OR NO CLOUDS BELOW 12,000 FEET WITH NO
SIGNIFICANT WEATHER AND/OR OBSTRUCTIONS TO VISIBILITY.

OHZ001>008-015>018-024>027-034-035-043-044-212000-
   NORTHWEST OHIO

CITY           SKY/WX    TMP DP  RH WIND       PRES   REMARKS
DEFIANCE       CLOUDY   N/A N/A N/A W14G23    29.81R
FINDLAY        CLOUDY    68  49  50 W24G36    29.77R
TOLEDO EXPRESS CLOUDY    61  51  70 W18G28    29.76R
TOLEDO METCALF CLOUDY    66  49  54 W22G31    29.75S
LIMA           PTSUNNY   68  49  50 W20G32    29.81R
$$

OHZ009>014-019>023-028>033-038-089-212000-
   NORTHEAST OHIO

CITY           SKY/WX    TMP DP  RH WIND       PRES   REMARKS
CLE-HOPKINS    PTSUNNY   70  51  51 W18G28    29.71S
CLE-LAKEFRONT  MOSUNNY   69  55  60 W22       29.68R
CUY CO. ARPT   PTSUNNY   70  59  68 NW17G29   29.69S
LORAIN-ELYRIA  PTSUNNY   75  52  44 W21G26    29.72R
ASHTABULA      MOSUNNY   71  57  61 W16G24    29.68F
AKRON-CANTON   MOSUNNY   78  46  32 W16G28    29.69S
WOOSTER        SUNNY     77  47  34 W18G32    29.72S
MANSFIELD      PTSUNNY   70  48  45 W14G25    29.74F
YOUNGSTOWN     MOSUNNY   76  52  43 W16G28    29.66F
$$

OHZ042-051>053-060>062-070>072-077>081-212000-
  SOUTHWEST OHIO

CITY           SKY/WX    TMP DP  RH WIND       PRES   REMARKS
CINC-COVINGTON SUNNY     77  45  32 W21G30    29.86S
CINC-LUNKEN    SUNNY     79  45  29 W16G25    29.85S
HAMILTON       SUNNY     78  46  32 W16G28    29.85F
DAYTON         MOSUNNY   76  45  33 W25G38    29.83S
WRIGHT-PAT AFB SUNNY     76  44  31 W23G33    29.81F
DAYTON GENERAL SUNNY     76  45  33 NW18G28   29.82F
WILMINGTON     SUNNY     76  44  32 W17G28    29.82S
$$

OHZ036-037-039>041-045>050-054>059-063>069-073>076-082>088-212000-
  CENTRAL AND SOUTHEAST OHIO

CITY           SKY/WX    TMP DP  RH WIND       PRES   REMARKS
COLUMBUS       MOSUNNY   80  42  25 W21G31    29.75F
OSU AIRPORT    SUNNY     77  44  30 W18G33    29.77S
BOLTON FIELD   SUNNY     75  46  35 W14G29    29.79S
RICKENBACK AFB SUNNY     78  42  27 W21G29    29.77S
NEWARK         SUNNY     80  42  25 W16G25    29.75R
MARION         MOSUNNY   73  47  39 W22G41    29.77S
LANCASTER      SUNNY     79  38  22 W22G30    29.77S
ZANESVILLE     SUNNY     80  49  33 W20G32    29.72F
NEW PHILLY     SUNNY     80  44  27 W12G25    29.70F
$$


USA.gov is the U.S. government's official web portal to all federal, state and local government web resources and services.